Weather History for KIEN - October, 2012

Change the Weather History Date:

Monday, October 22, 2012

  Actual Average Record
Temperature  
Mean Temperature 47 °F 46 °F  
Max Temperature 53 °F 61 °F 82 °F (2003)
Min Temperature 40 °F 30 °F 18 °F (2006)
Degree Days  
Heating Degree Days 18 19  
Month to date heating degree days 400 338  
Since 1 July heating degree days 539 560  
Cooling Degree Days 0 0  
Month to date cooling degree days 2 0  
Year to date cooling degree days 1103 714  
Moisture  
Dew Point 39 °F    
Average Humidity 76    
Maximum Humidity 93    
Minimum Humidity 59    
Precipitation  
Precipitation 0.00 in 0.05 in 0.64 in (2000)
Month to date precipitation 0.30 0.90  
Year to date precipitation 9.79 16.30  
Sea Level Pressure  
Sea Level Pressure 29.90 in    
Wind  
Wind Speed 6 mph (East)    
Max Wind Speed 17 mph    
Max Gust Speed 22 mph    
Visibility 9 miles    
Events      
T = Trace of Precipitation, MM = Missing Value Source: NWS Daily Summary

Daily Weather History Graph

Daily Weather History Graph

Search for Another Location

Airport or City:

Trip Planner

Search our weather history database for the weather conditions in past years. The results will help you decide how hot, cold, wet, or windy it might be!

Date:

Astronomy

Oct. 22, 2012 Rise Set
Actual Time 7:12 AM MDT 5:55 PM MDT
Civil Twilight 6:43 AM MDT 6:24 PM MDT
Nautical Twilight 6:10 AM MDT 6:57 PM MDT
Astronomical Twilight 5:37 AM MDT 7:30 PM MDT
Moon 2:14 PM MDT (10/22) No Moon Set
Length of Visible Light 11h 40m
Length of Day
10h 42m
First Quarter, 57% of the Moon is Illuminated
Oct 22
First Quarter
Oct 29
Full
Nov 6
Last Quarter
Nov 13
New
Nov 20
First Quarter

Hourly Weather History & Observations

Time (MDT) Temp. Windchill Dew Point Humidity Pressure Visibility Wind Dir Wind Speed Gust Speed Precip Events Conditions
12:52 AM 44.1 °F 40.8 °F 37.9 °F 79% 29.96 in 10.0 mi East 5.8 mph - N/A   Overcast
1:27 AM 44.6 °F 40.2 °F 39.2 °F 81% 29.97 in 10.0 mi ENE 8.1 mph - N/A   Overcast
1:52 AM 44.1 °F 40.1 °F 39.9 °F 85% 29.96 in 10.0 mi ENE 6.9 mph - N/A   Overcast
2:52 AM 43.0 °F 40.3 °F 39.9 °F 89% 29.97 in 10.0 mi NNE 4.6 mph - N/A   Overcast
3:52 AM 43.0 °F 40.3 °F 39.9 °F 89% 29.95 in 10.0 mi NE 4.6 mph - N/A   Overcast
8:52 AM 42.1 °F 39.2 °F 39.9 °F 92% 30.01 in 4.0 mi East 4.6 mph - N/A   Overcast
9:23 AM 42.8 °F 38.6 °F 39.2 °F 87% 29.96 in 2.5 mi ENE 6.9 mph - N/A   Overcast
9:33 AM 42.8 °F 39.3 °F 39.2 °F 87% 29.96 in 4.0 mi ENE 5.8 mph - N/A   Overcast
9:52 AM 42.1 °F 37.7 °F 39.9 °F 92% 30.00 in 8.0 mi East 6.9 mph - N/A   Overcast
11:11 AM 44.6 °F 39.7 °F 37.4 °F 76% 29.93 in 10.0 mi East 9.2 mph - N/A   Overcast
11:52 AM 46.0 °F 42.5 °F 37.9 °F 73% 29.93 in 10.0 mi SE 6.9 mph - N/A   Overcast
12:29 PM 46.4 °F - 39.2 °F 76% 29.90 in 10.0 mi Calm Calm - N/A   Overcast
12:52 PM 48.0 °F - 39.0 °F 71% 29.90 in 10.0 mi Variable 3.5 mph - N/A   Overcast
2:44 PM 51.8 °F - 39.2 °F 62% 29.83 in 10.0 mi SSW 4.6 mph - N/A   Scattered Clouds
2:52 PM 51.1 °F - 39.0 °F 63% 29.83 in 10.0 mi Variable 3.5 mph - N/A   Partly Cloudy
3:52 PM 53.1 °F - 39.0 °F 59% 29.79 in 10.0 mi East 5.8 mph - N/A   Clear
5:52 PM 50.0 °F - 39.0 °F 66% 29.78 in 10.0 mi East 8.1 mph - N/A   Clear
7:52 PM 43.0 °F 39.5 °F 37.0 °F 80% 29.78 in 10.0 mi ENE 5.8 mph - N/A   Clear
8:52 PM 39.9 °F 35.8 °F 36.0 °F 86% 29.79 in 10.0 mi ENE 5.8 mph - N/A   Clear
10:52 PM 44.1 °F 41.5 °F 39.0 °F 82% 29.73 in 10.0 mi SSE 4.6 mph - N/A   Clear